GFSNE_prec_kuchsnow_246.txt.gz
Snowfall_Accumulation
0.0 0.0 0.0 0.0 0.0 0.0 0.1 0.1 2.1 3.2 0.1 0.0 0.0 0.0 0.0 0.0 0.0 0.0 0.0 0.0 0.0 0.0 0.0 0.0 0.0 0.0 0.0 0.0 0.0 0.0 0.0 0.0 0.0 0.0 0.0 0.0 0.0 0.0
0.0 0.0 0.0 0.0 0.0 0.0 0.1 0.0 0.2 0.8 1.7 0.0 0.0 0.0 0.0 0.0 0.0 0.0 0.0 0.0 0.0 0.0 0.0 0.0 0.0 0.0 0.0 0.0 0.0 0.0 0.0 0.0 0.0 0.0 0.0 0.0 0.0 0.0
0.0 0.0 0.0 0.0 0.0 0.1 0.0 0.0 0.1 0.3 1.1 0.0 0.0 0.0 0.0 0.0 0.0 0.0 0.0 0.0 0.0 0.0 0.0 0.0 0.0 0.0 0.0 0.0 0.0 0.0 0.0 0.0 0.0 0.0 0.0 0.0 0.0 0.0
0.1 0.0 0.0 0.0 0.0 0.0 0.0 0.1 0.3 0.1 0.4 0.4 0.0 0.0 0.0 0.0 0.0 0.0 0.0 0.0 0.0 0.0 0.0 0.0 0.0 0.0 0.0 0.0 0.0 0.0 0.0 0.0 0.0 0.0 0.0 0.0 0.0 0.0
0.4 0.3 0.1 0.2 0.2 0.2 0.3 0.4 0.2 0.1 0.1 0.3 0.2 0.0 0.0 0.0 0.0 0.0 0.0 0.0 0.0 0.0 0.0 0.0 0.0 0.0 0.0 0.0 0.0 0.0 0.0 0.0 0.0 0.0 0.0 0.0 0.0 0.0
1.6 1.3 0.9 0.7 0.7 1.5 0.3 0.4 0.2 0.3 0.3 0.2 0.1 0.1 0.0 0.0 0.0 0.0 0.0 0.0 0.0 0.0 0.0 0.0 0.0 0.0 0.0 0.0 0.1 0.1 0.0 0.0 0.0 0.0 0.0 0.0 0.0 0.0
3.9 2.9 3.0 2.8 1.5 2.1 2.9 2.3 0.8 1.1 1.3 0.9 1.6 1.2 0.8 0.7 0.4 0.1 0.7 0.8 0.5 0.2 0.6 0.5 0.2 0.4 0.3 0.1 0.1 0.0 0.0 0.0 0.0 0.0 0.0 0.1 0.1 0.0
4.1 4.7 3.6 3.6 2.5 2.9 2.4 2.6 3.2 2.6 6.3 5.4 3.6 2.8 1.1 1.9 1.8 2.6 3.3 7.6 10.9 0.5 1.8 2.7 1.0 1.4 0.8 0.5 0.3 0.1 0.1 0.3 0.3 0.2 0.4 0.4 0.0 0.0
5.3 4.3 4.0 4.6 4.1 3.2 3.4 3.3 2.8 3.1 4.7 7.9 11.4 6.7 6.3 4.0 4.4 7.7 4.4 4.2 3.9 1.5 2.8 8.6 4.8 4.2 1.9 0.6 0.4 0.4 0.5 0.3 0.1 0.4 0.3 0.5 0.6 0.6
5.8 4.9 4.2 4.3 4.5 4.6 6.0 8.5 9.4 7.8 7.3 7.6 6.2 6.5 3.0 3.1 4.4 4.5 5.6 7.0 7.2 6.9 4.5 17.5 10.8 8.1 5.0 1.5 0.6 0.5 0.6 0.6 0.8 0.6 0.3 0.1 0.2 0.6
1.8 3.7 4.2 3.9 6.5 6.7 11.8 13.3 12.3 9.5 7.6 5.4 5.8 4.8 6.8 5.7 5.9 11.1 14.5 18.2 17.3 12.3 9.7 12.3 10.7 11.5 11.7 12.1 6.0 1.5 1.1 0.8 0.6 0.2 1.9 1.1 0.9 2.1
0.9 1.8 4.1 5.5 5.7 6.7 11.1 12.7 14.9 11.8 10.6 8.8 9.0 8.1 6.5 5.8 6.0 5.6 13.0 19.1 15.2 19.5 9.3 11.3 9.1 11.0 22.3 14.7 13.1 11.5 8.2 3.3 0.8 2.5 1.2 1.2 2.6 4.9
4.2 5.5 4.2 4.5 8.0 5.7 6.1 9.1 11.6 7.6 8.3 9.1 9.3 10.9 10.8 9.9 10.4 9.3 8.6 13.5 22.3 16.9 5.2 9.5 10.9 8.7 12.8 11.5 12.9 14.0 13.5 17.4 12.3 8.9 5.2 4.8 2.4 3.1
10.0 8.7 8.5 8.1 6.4 5.7 5.6 8.0 7.2 6.5 8.8 10.9 10.7 11.8 15.0 15.0 12.1 12.9 11.4 10.4 9.5 11.7 7.3 12.0 21.7 7.6 11.6 14.6 13.4 14.1 18.6 19.1 18.1 16.9 15.5 13.6 11.1 8.4
8.4 9.4 9.3 7.8 6.5 7.6 6.6 6.7 7.2 9.8 10.5 10.8 10.0 8.8 10.0 11.3 11.3 11.8 12.6 11.0 10.8 11.4 11.8 9.7 10.9 10.5 14.4 15.4 9.0 11.4 20.2 24.3 17.7 16.2 17.4 18.5 20.2 17.9
8.8 9.8 10.6 9.5 8.6 9.1 9.6 8.0 9.4 9.6 9.3 9.5 7.9 6.8 6.4 8.5 10.0 9.9 13.8 12.7 17.1 17.8 13.4 14.0 17.0 14.8 20.6 14.5 10.4 14.7 10.9 18.4 17.4 17.2 16.0 16.8 16.5 13.5
12.2 13.5 13.0 9.7 8.8 6.5 5.5 5.1 5.4 5.4 6.8 6.8 6.2 5.3 5.6 6.1 9.2 9.1 10.3 10.5 16.2 16.7 18.0 17.1 16.9 18.8 14.9 12.6 16.4 10.6 11.1 11.6 11.9 14.5 15.0 16.5 15.1 15.1
11.6 9.8 8.8 7.8 7.6 7.2 7.9 8.4 6.0 4.8 4.2 5.2 5.5 4.9 6.7 7.7 8.6 8.0 8.2 13.6 14.9 15.4 17.8 16.7 17.4 21.0 17.9 16.4 8.7 10.6 15.4 14.5 12.5 10.2 9.6 13.5 13.3 10.5
11.6 9.6 9.3 10.2 8.5 8.5 7.5 8.1 8.0 6.7 5.2 5.8 5.0 7.0 6.2 6.2 7.9 7.7 9.1 10.8 13.6 10.8 13.3 16.0 20.5 21.8 28.0 24.9 15.3 6.6 12.7 10.1 9.7 11.3 11.2 11.1 14.9 10.6
11.2 11.7 11.7 10.1 8.8 7.5 7.4 8.0 6.7 6.4 5.8 4.8 5.3 4.8 6.1 6.7 5.4 7.5 8.6 11.8 11.5 11.0 10.0 10.7 15.9 18.3 26.7 26.5 24.9 18.3 11.6 13.4 11.9 12.9 13.0 11.4 12.2 10.8
13.2 11.9 13.1 12.7 11.4 10.8 10.2 9.5 9.9 9.5 8.9 6.8 6.8 7.3 7.6 7.3 6.9 4.8 7.0 7.9 9.6 10.7 11.0 11.8 12.8 15.0 17.2 17.8 24.5 22.4 22.3 14.0 14.1 16.2 14.9 17.6 16.3 11.3
22.9 20.8 19.2 19.2 18.8 17.7 16.3 14.7 12.8 12.0 11.2 8.5 8.3 8.5 9.4 8.7 8.7 8.9 8.6 12.5 12.1 11.5 12.7 11.1 11.0 12.7 16.3 19.6 21.8 18.2 21.0 20.7 13.1 13.5 13.2 12.7 19.6 22.1
23.6 22.4 21.0 19.0 17.6 17.6 17.1 17.1 15.6 15.4 13.6 12.0 11.6 10.5 10.5 11.8 10.2 10.4 9.4 8.4 9.7 10.1 9.8 13.4 12.9 12.5 16.3 17.2 19.9 22.3 20.2 20.2 20.3 16.1 18.5 7.6 6.7 6.2

GFSNE_prec_kuchsnow_249.txt.gz
Snowfall_Accumulation
0.0 0.0 0.0 0.0 0.0 0.0 0.1 0.1 2.1 3.2 0.1 0.0 0.0 0.0 0.0 0.0 0.0 0.0 0.0 0.0 0.0 0.0 0.0 0.0 0.0 0.0 0.0 0.0 0.0 0.0 0.0 0.0 0.0 0.0 0.0 0.0 0.0 0.0
0.0 0.0 0.0 0.0 0.0 0.0 0.1 0.0 0.2 0.8 1.7 0.0 0.0 0.0 0.0 0.0 0.0 0.0 0.0 0.0 0.0 0.0 0.0 0.0 0.0 0.0 0.0 0.0 0.0 0.0 0.0 0.0 0.0 0.0 0.0 0.0 0.0 0.0
0.0 0.0 0.0 0.0 0.0 0.1 0.0 0.0 0.1 0.3 1.1 0.0 0.0 0.0 0.0 0.0 0.0 0.0 0.0 0.0 0.0 0.0 0.0 0.0 0.0 0.0 0.0 0.0 0.0 0.0 0.0 0.0 0.0 0.0 0.0 0.0 0.0 0.0
0.1 0.0 0.0 0.0 0.0 0.0 0.0 0.1 0.3 0.1 0.4 0.4 0.0 0.0 0.0 0.0 0.0 0.0 0.0 0.0 0.0 0.0 0.0 0.0 0.0 0.0 0.0 0.0 0.0 0.0 0.0 0.0 0.0 0.0 0.0 0.0 0.0 0.0
0.4 0.3 0.1 0.2 0.2 0.2 0.3 0.4 0.2 0.1 0.1 0.3 0.2 0.0 0.0 0.0 0.0 0.0 0.0 0.0 0.0 0.0 0.0 0.0 0.0 0.0 0.0 0.0 0.0 0.0 0.0 0.0 0.0 0.0 0.0 0.0 0.0 0.0
1.6 1.3 0.9 0.7 0.7 1.5 0.3 0.4 0.2 0.3 0.3 0.2 0.1 0.1 0.0 0.0 0.0 0.0 0.0 0.0 0.0 0.0 0.0 0.0 0.0 0.0 0.0 0.0 0.1 0.1 0.0 0.0 0.0 0.0 0.0 0.0 0.0 0.0
3.9 2.9 3.0 2.8 1.5 2.1 2.9 2.3 0.8 1.1 1.3 0.9 1.6 1.2 0.8 0.7 0.4 0.1 0.7 0.8 0.5 0.2 0.6 0.5 0.2 0.4 0.3 0.1 0.1 0.0 0.0 0.0 0.0 0.0 0.0 0.1 0.1 0.0
4.1 4.7 3.6 3.6 2.5 2.9 2.4 2.6 3.2 2.6 6.3 5.4 3.6 2.8 1.1 1.9 1.8 2.6 3.3 7.6 11.0 0.5 1.8 2.7 1.0 1.4 0.8 0.5 0.3 0.1 0.1 0.3 0.3 0.2 0.4 0.4 0.0 0.0
5.3 4.3 4.0 4.6 4.1 3.2 3.4 3.3 2.8 3.1 4.7 7.9 11.5 6.7 6.4 4.0 4.4 7.8 4.4 4.3 4.0 1.5 2.9 8.8 4.8 4.2 1.9 0.6 0.4 0.4 0.5 0.3 0.1 0.4 0.3 0.5 0.6 0.6
5.8 4.9 4.2 4.3 4.5 4.6 6.0 8.5 9.4 7.8 7.3 7.6 6.2 6.5 3.0 3.1 4.4 4.5 5.6 7.1 7.2 6.9 4.5 17.7 10.8 8.1 5.0 1.5 0.6 0.5 0.6 0.6 0.8 0.6 0.3 0.1 0.2 0.6
1.8 3.7 4.2 3.9 6.5 6.7 11.8 13.3 12.3 9.5 7.6 5.4 5.8 4.8 6.8 5.7 5.9 11.1 14.6 18.4 17.4 12.3 9.7 12.4 10.7 11.5 11.7 12.1 6.0 1.5 1.1 0.8 0.6 0.2 1.9 1.1 0.9 2.1
0.9 1.8 4.1 5.5 5.7 6.7 11.1 12.7 14.9 11.8 10.6 8.8 9.0 8.1 6.5 5.8 6.0 5.6 13.1 19.6 15.5 19.5 9.4 11.7 9.1 11.1 22.5 14.7 13.1 11.5 8.2 3.4 0.8 2.5 1.2 1.2 2.6 4.9
4.2 5.5 4.2 4.5 8.0 5.7 6.1 9.1 11.6 7.6 8.3 9.1 9.3 10.9 10.8 9.9 10.4 9.3 8.6 13.8 22.8 17.2 5.2 10.0 11.1 8.8 13.0 11.6 12.9 14.0 13.5 17.6 12.3 8.9 5.2 4.8 2.4 3.1
10.0 8.7 8.5 8.1 6.4 5.7 5.6 8.0 7.2 6.5 8.8 10.9 10.7 11.8 15.0 15.0 12.1 12.9 11.4 10.4 9.5 12.0 7.4 12.3 22.1 7.9 11.9 14.8 13.4 14.1 18.6 19.4 18.4 17.3 15.5 13.6 11.1 8.4
8.4 9.4 9.3 7.8 6.5 7.6 6.6 6.7 7.2 9.8 10.5 10.8 10.0 8.8 10.0 11.3 11.3 11.8 12.6 11.0 10.8 11.4 11.9 9.8 11.1 10.7 14.4 15.4 9.0 11.4 20.2 24.9 18.6 17.4 18.3 20.1 22.9 20.8
8.8 9.8 10.6 9.5 8.6 9.1 9.6 8.0 9.4 9.6 9.3 9.5 7.9 6.8 6.4 8.5 10.0 9.9 13.8 12.7 17.1 17.8 13.4 14.1 17.1 14.9 20.6 14.5 10.4 14.7 10.9 19.0 18.9 19.0 17.2 18.9 19.0 16.2
12.2 13.5 13.0 9.7 8.8 6.5 5.5 5.1 5.4 5.4 6.8 6.8 6.2 5.3 5.6 6.1 9.2 9.1 10.3 10.5 16.2 16.7 18.0 17.3 16.9 18.8 15.0 12.7 16.5 10.8 11.4 12.0 13.0 16.6 16.1 18.5 18.3 18.7
11.6 9.8 8.8 7.8 7.6 7.2 7.9 8.4 6.0 4.8 4.2 5.2 5.5 4.9 6.7 7.7 8.6 8.1 8.2 13.6 14.9 15.4 18.0 17.0 17.4 21.0 17.9 16.4 8.9 10.8 15.6 14.9 13.3 11.5 11.0 15.1 17.3 15.9
11.6 9.6 9.3 10.2 8.5 8.5 7.5 8.1 8.0 6.7 5.2 5.8 5.0 7.0 6.2 6.2 7.9 7.8 9.1 10.8 13.6 10.8 13.4 16.0 20.5 21.8 28.0 25.1 15.9 7.1 13.0 10.6 10.1 12.1 12.6 11.8 16.6 14.4
11.2 11.7 11.7 10.1 8.8 7.5 7.4 8.0 6.7 6.4 5.8 4.8 5.3 4.8 6.1 6.7 5.4 7.5 8.7 11.8 11.5 11.0 10.0 10.9 15.9 18.3 26.7 26.5 24.9 20.0 12.5 14.3 12.4 14.0 14.5 12.5 13.2 12.1
13.2 11.9 13.1 12.7 11.4 10.8 10.2 9.5 9.9 9.5 8.9 6.8 6.8 7.3 7.6 7.3 6.9 4.8 7.1 7.9 9.6 10.7 11.0 11.8 12.8 15.0 17.2 17.8 24.5 23.0 24.3 15.5 15.4 17.1 15.8 17.9 16.7 11.8
22.9 20.8 19.2 19.2 18.8 17.7 16.3 14.7 12.8 12.0 11.2 8.5 8.3 8.5 9.4 8.7 8.7 8.9 8.6 12.6 12.1 11.5 12.8 11.3 11.0 12.7 16.3 19.6 21.8 18.2 21.7 21.7 14.1 14.2 13.7 12.7 19.6 22.2
23.6 22.4 21.0 19.0 17.6 17.6 17.1 17.1 15.6 15.4 13.6 12.0 11.6 10.5 10.5 11.8 10.2 10.6 9.5 8.4 9.7 10.1 9.9 13.6 12.9 12.5 16.3 17.4 19.9 22.4 20.3 20.5 20.8 16.4 18.6 7.6 6.7 6.2

GFSNE_prec_kuchsnow_252.txt.gz
Snowfall_Accumulation
0.0 0.0 0.0 0.0 0.0 0.0 0.1 0.1 2.1 3.2 0.1 0.0 0.0 0.0 0.0 0.0 0.0 0.0 0.0 0.0 0.0 0.0 0.0 0.0 0.0 0.0 0.0 0.0 0.0 0.0 0.0 0.0 0.0 0.0 0.0 0.0 0.0 0.0
0.0 0.0 0.0 0.0 0.0 0.0 0.1 0.0 0.2 0.8 1.7 0.0 0.0 0.0 0.0 0.0 0.0 0.0 0.0 0.0 0.0 0.0 0.0 0.0 0.0 0.0 0.0 0.0 0.0 0.0 0.0 0.0 0.0 0.0 0.0 0.0 0.0 0.0
0.0 0.0 0.0 0.0 0.0 0.1 0.0 0.0 0.1 0.3 1.1 0.0 0.0 0.0 0.0 0.0 0.0 0.0 0.0 0.0 0.0 0.0 0.0 0.0 0.0 0.0 0.0 0.0 0.0 0.0 0.0 0.0 0.0 0.0 0.0 0.0 0.0 0.0
0.1 0.0 0.0 0.0 0.0 0.0 0.0 0.1 0.3 0.1 0.4 0.4 0.0 0.0 0.0 0.0 0.0 0.0 0.0 0.0 0.0 0.0 0.0 0.0 0.0 0.0 0.0 0.0 0.0 0.0 0.0 0.0 0.0 0.0 0.0 0.0 0.0 0.0
0.4 0.3 0.1 0.2 0.2 0.2 0.3 0.4 0.2 0.1 0.1 0.3 0.2 0.0 0.0 0.0 0.0 0.0 0.0 0.0 0.0 0.0 0.0 0.0 0.0 0.0 0.0 0.0 0.0 0.0 0.0 0.0 0.0 0.0 0.0 0.0 0.0 0.0
1.6 1.3 0.9 0.7 0.7 1.5 0.3 0.4 0.2 0.3 0.3 0.2 0.1 0.1 0.0 0.0 0.0 0.0 0.0 0.0 0.0 0.0 0.0 0.0 0.0 0.0 0.0 0.0 0.1 0.1 0.0 0.0 0.0 0.0 0.0 0.0 0.0 0.0
3.9 2.9 3.0 2.8 1.5 2.1 2.9 2.3 0.8 1.1 1.3 0.9 1.6 1.2 0.8 0.7 0.4 0.1 0.7 0.8 0.5 0.2 0.6 0.5 0.2 0.4 0.3 0.1 0.1 0.0 0.0 0.0 0.0 0.0 0.0 0.1 0.1 0.0
4.1 4.7 3.6 3.6 2.5 2.9 2.4 2.6 3.2 2.6 6.3 5.4 3.6 2.8 1.1 1.9 1.8 2.6 3.4 7.7 11.1 0.5 1.8 2.7 1.0 1.4 0.8 0.5 0.3 0.1 0.1 0.3 0.3 0.2 0.4 0.4 0.0 0.0
5.3 4.3 4.0 4.6 4.1 3.2 3.4 3.3 2.8 3.1 4.7 7.9 11.5 6.7 6.4 4.0 4.5 7.9 4.5 4.4 4.1 1.5 3.0 8.8 4.8 4.2 1.9 0.6 0.4 0.4 0.5 0.3 0.1 0.4 0.3 0.5 0.6 0.6
5.8 4.9 4.2 4.3 4.5 4.6 6.0 8.5 9.4 7.8 7.3 7.6 6.2 6.5 3.0 3.1 4.4 4.5 5.6 7.1 7.2 6.9 4.5 17.9 10.8 8.1 5.0 1.5 0.6 0.5 0.6 0.6 0.8 0.6 0.3 0.1 0.2 0.6
1.8 3.7 4.2 3.9 6.5 6.7 11.8 13.3 12.3 9.5 7.6 5.4 5.8 4.8 6.8 5.7 5.9 11.1 14.6 18.6 17.6 12.3 9.7 12.7 10.7 11.5 11.7 12.1 6.0 1.5 1.1 0.8 0.6 0.2 1.9 1.1 0.9 2.1
0.9 1.8 4.1 5.5 5.7 6.7 11.1 12.7 14.9 11.8 10.6 8.8 9.0 8.1 6.5 5.8 6.0 5.6 13.2 20.0 15.7 19.7 9.4 12.1 9.1 11.3 22.8 14.7 13.1 11.5 8.2 3.4 0.9 2.5 1.2 1.2 2.6 4.9
4.2 5.5 4.2 4.5 8.0 5.7 6.1 9.1 11.6 7.6 8.3 9.1 9.3 10.9 10.8 9.9 10.4 9.3 8.6 14.1 23.2 17.5 5.2 10.7 11.4 9.0 13.2 11.7 12.9 14.0 13.5 17.6 12.5 9.0 5.2 4.8 2.4 3.1
10.0 8.7 8.5 8.1 6.4 5.7 5.6 8.0 7.2 6.5 8.8 10.9 10.7 11.8 15.0 15.0 12.1 12.9 11.4 10.4 9.5 12.1 7.4 12.6 22.6 8.2 12.2 14.9 13.4 14.1 18.6 19.6 18.8 17.6 15.8 13.6 11.1 8.4
8.4 9.4 9.3 7.8 6.5 7.6 6.6 6.7 7.2 9.8 10.5 10.8 10.0 8.8 10.0 11.3 11.3 11.8 12.6 11.0 10.8 11.4 11.9 9.8 11.3 10.8 14.5 15.5 9.1 11.5 20.2 24.9 19.6 19.2 20.0 21.9 25.0 20.8
8.8 9.8 10.6 9.5 8.6 9.1 9.6 8.0 9.4 9.6 9.3 9.5 7.9 6.8 6.4 8.5 10.0 9.9 13.8 12.7 17.1 17.8 13.4 14.1 17.1 14.9 20.6 14.6 10.4 14.9 11.0 19.3 20.3 21.6 19.8 21.6 22.2 19.7
12.2 13.5 13.0 9.7 8.8 6.5 5.5 5.1 5.4 5.4 6.8 6.8 6.2 5.3 5.6 6.1 9.2 9.1 10.3 10.5 16.2 16.7 18.0 17.3 16.9 18.8 15.0 12.7 16.5 11.1 11.7 12.3 13.8 19.1 18.9 21.8 22.7 22.4
11.6 9.8 8.8 7.8 7.6 7.2 7.9 8.4 6.0 4.8 4.2 5.2 5.5 4.9 6.7 7.7 8.6 8.1 8.2 13.6 14.9 15.4 18.0 17.0 17.4 21.0 17.9 16.4 9.0 11.2 15.9 15.4 13.9 12.5 12.9 17.2 21.2 20.7
11.6 9.6 9.3 10.2 8.5 8.5 7.5 8.1 8.0 6.7 5.2 5.8 5.0 7.0 6.2 6.2 7.9 7.8 9.1 10.8 13.6 10.8 13.4 16.0 20.5 21.8 28.0 25.1 15.9 7.4 13.5 11.3 10.4 12.5 13.8 13.2 19.5 20.6
11.2 11.7 11.7 10.1 8.8 7.5 7.4 8.0 6.7 6.4 5.8 4.8 5.3 4.8 6.1 6.7 5.4 7.5 8.8 11.8 11.5 11.0 10.0 10.9 15.9 18.3 26.7 26.5 25.1 20.9 13.1 15.3 12.9 14.8 15.9 14.0 15.6 15.7
13.2 11.9 13.1 12.7 11.4 10.8 10.2 9.5 9.9 9.5 8.9 6.8 6.8 7.3 7.6 7.3 6.9 4.8 7.1 7.9 9.6 10.7 11.1 11.8 12.8 15.0 17.2 17.8 24.5 23.3 25.3 16.4 16.1 17.7 16.6 18.5 17.9 13.4
22.9 20.8 19.2 19.2 18.8 17.7 16.3 14.7 12.8 12.0 11.2 8.5 8.3 8.5 9.4 8.7 8.8 8.9 8.6 12.6 12.1 11.5 12.8 11.3 11.0 12.7 16.3 19.6 21.8 18.2 22.4 23.2 15.6 15.4 15.0 13.5 20.2 23.2
23.6 22.4 21.0 19.0 17.6 17.6 17.1 17.1 15.6 15.4 13.6 12.0 11.6 10.5 10.5 11.8 10.2 10.7 9.6 8.5 9.7 10.2 10.0 13.6 12.9 12.5 16.3 17.4 19.9 22.5 20.7 21.2 21.6 17.0 19.7 8.5 7.4 6.6

GFSNE_prec_kuchsnow_255.txt.gz
Snowfall_Accumulation
0.0 0.0 0.0 0.0 0.0 0.0 0.1 0.1 2.1 3.2 0.1 0.0 0.0 0.0 0.0 0.0 0.0 0.0 0.0 0.0 0.0 0.0 0.0 0.0 0.0 0.0 0.0 0.0 0.0 0.0 0.0 0.0 0.0 0.0 0.0 0.0 0.0 0.0
0.0 0.0 0.0 0.0 0.0 0.0 0.1 0.0 0.2 0.8 1.7 0.0 0.0 0.0 0.0 0.0 0.0 0.0 0.0 0.0 0.0 0.0 0.0 0.0 0.0 0.0 0.0 0.0 0.0 0.0 0.0 0.0 0.0 0.0 0.0 0.0 0.0 0.0
0.0 0.0 0.0 0.0 0.0 0.1 0.0 0.0 0.1 0.3 1.1 0.0 0.0 0.0 0.0 0.0 0.0 0.0 0.0 0.0 0.0 0.0 0.0 0.0 0.0 0.0 0.0 0.0 0.0 0.0 0.0 0.0 0.0 0.0 0.0 0.0 0.0 0.0
0.1 0.0 0.0 0.0 0.0 0.0 0.0 0.1 0.3 0.1 0.4 0.4 0.0 0.0 0.0 0.0 0.0 0.0 0.0 0.0 0.0 0.0 0.0 0.0 0.0 0.0 0.0 0.0 0.0 0.0 0.0 0.0 0.0 0.0 0.0 0.0 0.0 0.0
0.4 0.3 0.1 0.2 0.2 0.2 0.3 0.4 0.2 0.1 0.1 0.3 0.2 0.0 0.0 0.0 0.0 0.0 0.0 0.0 0.0 0.0 0.0 0.0 0.0 0.0 0.0 0.0 0.0 0.0 0.0 0.0 0.0 0.0 0.0 0.0 0.0 0.0
1.6 1.3 0.9 0.7 0.7 1.5 0.3 0.4 0.2 0.3 0.3 0.2 0.1 0.1 0.0 0.0 0.0 0.0 0.0 0.0 0.0 0.0 0.0 0.0 0.0 0.0 0.0 0.0 0.1 0.1 0.0 0.0 0.0 0.0 0.0 0.0 0.0 0.0
3.9 2.9 3.0 2.8 1.5 2.1 2.9 2.3 0.8 1.1 1.3 0.9 1.6 1.2 0.8 0.7 0.4 0.1 0.7 0.8 0.5 0.2 0.6 0.5 0.2 0.4 0.3 0.1 0.1 0.0 0.0 0.0 0.0 0.0 0.0 0.1 0.1 0.0
4.1 4.7 3.6 3.6 2.5 2.9 2.4 2.6 3.2 2.6 6.3 5.4 3.6 2.8 1.1 1.9 1.8 2.6 3.4 7.7 11.1 0.5 1.8 2.7 1.0 1.4 0.8 0.5 0.3 0.1 0.1 0.3 0.3 0.2 0.4 0.4 0.0 0.0
5.3 4.3 4.0 4.6 4.1 3.2 3.4 3.3 2.8 3.1 4.7 7.9 11.5 6.7 6.4 4.0 4.5 7.9 4.5 4.4 4.1 1.5 3.0 8.8 4.8 4.2 1.9 0.6 0.4 0.4 0.5 0.3 0.1 0.4 0.3 0.5 0.6 0.6
5.8 4.9 4.2 4.3 4.5 4.6 6.0 8.5 9.4 7.8 7.3 7.6 6.2 6.5 3.0 3.1 4.4 4.5 5.6 7.1 7.2 6.9 4.5 17.9 10.8 8.1 5.0 1.5 0.6 0.5 0.6 0.6 0.8 0.6 0.3 0.1 0.2 0.6
1.8 3.7 4.2 3.9 6.5 6.7 11.8 13.3 12.3 9.5 7.6 5.4 5.8 4.8 6.8 5.7 5.9 11.1 14.6 18.6 17.6 12.3 9.7 12.9 10.7 11.5 11.7 12.1 6.0 1.5 1.1 0.8 0.6 0.3 1.9 1.1 0.9 2.1
1.1 1.8 4.1 5.5 5.7 6.7 11.1 12.7 14.9 11.8 10.6 8.8 9.0 8.1 6.5 5.8 6.0 5.6 13.2 20.1 15.9 19.7 9.4 12.6 9.1 11.4 23.0 14.7 13.1 11.5 8.2 3.4 0.9 2.5 1.2 1.2 2.6 4.9
4.3 5.5 4.2 4.5 8.0 5.7 6.1 9.1 11.6 7.6 8.3 9.1 9.3 10.9 10.8 9.9 10.4 9.3 8.6 14.1 23.3 17.5 5.2 11.2 11.4 9.2 13.5 11.7 12.9 14.0 13.5 17.6 12.6 9.0 5.2 4.8 2.4 3.1
10.1 8.7 8.5 8.1 6.4 5.7 5.6 8.0 7.2 6.5 8.8 10.9 10.7 11.8 15.0 15.0 12.1 12.9 11.4 10.4 9.5 12.1 7.4 12.6 22.9 8.6 12.6 15.0 13.4 14.1 18.6 19.6 19.0 17.9 16.1 13.6 11.1 8.4
8.4 9.4 9.3 7.8 6.5 7.6 6.6 6.7 7.2 9.8 10.5 10.8 10.0 8.8 10.0 11.3 11.3 11.8 12.6 11.0 10.8 11.4 11.9 9.8 11.3 10.8 14.5 15.7 9.2 11.5 20.3 24.9 20.0 20.1 21.1 22.7 25.0 20.8
8.9 9.8 10.6 9.5 8.6 9.1 9.6 8.0 9.4 9.6 9.3 9.5 7.9 6.8 6.4 8.5 10.0 9.9 13.8 12.7 17.1 17.8 13.4 14.1 17.2 14.9 20.6 14.6 10.4 14.9 11.2 20.0 21.0 22.8 21.7 22.9 23.5 21.3
12.2 13.5 13.0 9.7 8.8 6.5 5.5 5.1 5.4 5.4 6.8 6.8 6.2 5.3 5.6 6.1 9.2 9.1 10.3 10.5 16.2 16.7 18.0 17.3 16.9 18.9 15.0 12.7 16.5 11.1 12.0 12.9 14.8 20.9 21.2 23.8 25.1 24.6
11.6 9.8 8.8 7.8 7.6 7.2 7.9 8.4 6.0 4.8 4.2 5.2 5.5 4.9 6.7 7.7 8.6 8.1 8.2 13.6 14.9 15.4 18.0 17.0 17.4 21.0 17.9 16.4 9.1 11.3 15.9 16.0 14.9 14.1 15.7 20.1 25.3 24.9
11.6 9.6 9.3 10.2 8.5 8.5 7.5 8.1 8.0 6.7 5.2 5.8 5.0 7.0 6.2 6.2 7.9 7.8 9.1 10.8 13.6 10.8 13.4 16.0 20.5 21.8 28.0 25.1 15.9 7.5 13.8 12.0 11.2 13.4 16.1 16.3 24.2 28.2
11.2 11.7 11.7 10.1 8.8 7.5 7.4 8.0 6.7 6.4 5.8 4.8 5.3 4.8 6.1 6.7 5.4 7.5 8.8 11.8 11.5 11.0 10.0 10.9 15.9 18.3 26.7 26.6 25.3 21.3 13.4 15.7 13.3 15.6 17.9 17.2 20.7 21.9
13.2 11.9 13.1 12.7 11.4 10.8 10.2 9.5 9.9 9.5 8.9 6.8 6.8 7.4 7.6 7.4 6.9 4.8 7.1 7.9 9.6 10.7 11.1 11.8 12.8 15.0 17.2 17.8 24.6 23.3 25.7 17.0 16.6 18.3 17.9 20.1 20.9 16.8
22.9 20.8 19.2 19.2 18.8 17.7 16.3 14.7 12.8 12.0 11.2 8.5 8.3 8.5 9.4 8.7 8.8 8.9 8.6 12.7 12.1 11.5 12.8 11.3 11.0 12.7 16.3 19.6 21.8 18.2 22.8 23.8 16.3 16.4 16.3 14.2 20.7 24.2
23.6 22.4 21.0 19.0 17.6 17.6 17.1 17.1 15.6 15.4 13.6 12.0 11.6 10.5 10.5 11.8 10.2 10.7 9.6 8.5 9.8 10.2 10.0 13.6 12.9 12.5 16.3 17.4 19.9 22.5 20.8 21.6 22.3 17.8 22.4 11.0 8.9 7.7

GFSNE_prec_kuchsnow_258.txt.gz
Snowfall_Accumulation
0.0 0.0 0.0 0.0 0.0 0.0 0.1 0.1 2.1 3.2 0.1 0.0 0.0 0.0 0.0 0.0 0.0 0.0 0.0 0.0 0.0 0.0 0.0 0.0 0.0 0.0 0.0 0.0 0.0 0.0 0.0 0.0 0.0 0.0 0.0 0.0 0.0 0.0
0.0 0.0 0.0 0.0 0.0 0.0 0.1 0.0 0.2 0.8 1.7 0.0 0.0 0.0 0.0 0.0 0.0 0.0 0.0 0.0 0.0 0.0 0.0 0.0 0.0 0.0 0.0 0.0 0.0 0.0 0.0 0.0 0.0 0.0 0.0 0.0 0.0 0.0
0.0 0.0 0.0 0.0 0.0 0.1 0.0 0.0 0.1 0.3 1.1 0.0 0.0 0.0 0.0 0.0 0.0 0.0 0.0 0.0 0.0 0.0 0.0 0.0 0.0 0.0 0.0 0.0 0.0 0.0 0.0 0.0 0.0 0.0 0.0 0.0 0.0 0.0
0.1 0.0 0.0 0.0 0.0 0.0 0.0 0.1 0.3 0.1 0.4 0.4 0.0 0.0 0.0 0.0 0.0 0.0 0.0 0.0 0.0 0.0 0.0 0.0 0.0 0.0 0.0 0.0 0.0 0.0 0.0 0.0 0.0 0.0 0.0 0.0 0.0 0.0
0.4 0.3 0.1 0.2 0.2 0.2 0.3 0.4 0.2 0.1 0.1 0.3 0.2 0.0 0.0 0.0 0.0 0.0 0.0 0.0 0.0 0.0 0.0 0.0 0.0 0.0 0.0 0.0 0.0 0.0 0.0 0.0 0.0 0.0 0.0 0.0 0.0 0.0
1.6 1.3 0.9 0.7 0.7 1.5 0.3 0.4 0.2 0.3 0.3 0.2 0.1 0.1 0.0 0.0 0.0 0.0 0.0 0.0 0.0 0.0 0.0 0.0 0.0 0.0 0.0 0.0 0.1 0.1 0.0 0.0 0.0 0.0 0.0 0.0 0.0 0.0
3.9 2.9 3.0 2.8 1.5 2.1 2.9 2.4 0.8 1.1 1.3 0.9 1.6 1.2 0.8 0.7 0.4 0.1 0.7 0.8 0.5 0.2 0.6 0.5 0.2 0.4 0.3 0.1 0.1 0.0 0.0 0.0 0.0 0.0 0.0 0.1 0.1 0.0
4.1 4.7 3.6 3.6 2.5 2.9 2.4 2.6 3.2 2.6 6.3 5.4 3.6 2.8 1.1 1.9 1.8 2.7 3.4 7.7 11.1 0.5 1.8 2.7 1.0 1.4 0.8 0.5 0.3 0.1 0.1 0.3 0.3 0.2 0.4 0.4 0.0 0.0
5.3 4.3 4.0 4.6 4.1 3.2 3.4 3.3 2.8 3.1 4.7 7.9 11.5 6.7 6.4 4.0 4.5 7.9 4.5 4.5 4.1 1.5 3.0 8.8 4.8 4.2 1.9 0.6 0.4 0.4 0.5 0.3 0.1 0.4 0.3 0.5 0.6 0.6
5.8 4.9 4.2 4.3 4.5 4.8 6.1 8.5 9.4 7.8 7.3 7.6 6.2 6.5 3.0 3.1 4.4 4.5 5.6 7.1 7.2 6.9 4.5 17.9 10.8 8.1 5.0 1.5 0.6 0.5 0.6 0.6 0.8 0.6 0.3 0.2 0.2 0.6
1.8 3.7 4.2 3.9 6.5 6.8 11.8 13.3 12.3 9.5 7.6 5.4 5.8 4.8 6.8 5.7 5.9 11.1 14.6 18.6 17.6 12.3 9.7 13.1 10.7 11.5 11.7 12.1 6.0 1.5 1.1 0.8 0.6 0.3 1.9 1.1 0.9 2.1
1.1 1.8 4.1 5.5 5.7 6.7 11.1 12.7 14.9 11.8 10.6 8.8 9.0 8.1 6.5 5.8 6.0 5.6 13.2 20.1 15.9 19.7 9.4 12.8 9.2 11.5 23.1 14.7 13.1 11.5 8.2 3.4 0.9 2.5 1.2 1.2 2.6 4.9
4.4 5.7 4.2 4.5 8.0 5.7 6.1 9.1 11.6 7.6 8.3 9.1 9.3 10.9 10.8 9.9 10.4 9.3 8.6 14.1 23.4 17.5 5.2 11.3 11.4 9.2 13.6 11.7 12.9 14.0 13.5 17.6 12.6 9.0 5.2 4.8 2.4 3.1
10.1 8.9 8.6 8.1 6.4 5.7 5.6 8.0 7.2 6.5 8.8 10.9 10.7 11.8 15.0 15.0 12.1 12.9 11.4 10.4 9.5 12.1 7.4 12.6 23.0 8.7 12.8 15.1 13.4 14.1 18.6 19.6 19.0 18.0 16.5 13.9 11.1 8.4
8.4 9.5 9.3 7.8 6.5 7.6 6.6 6.7 7.2 9.8 10.5 10.8 10.0 8.8 10.0 11.3 11.3 11.8 12.6 11.0 10.8 11.4 11.9 9.8 11.4 10.8 14.6 15.9 9.4 11.5 20.5 24.9 20.2 20.6 22.3 23.5 25.7 20.8
8.9 9.8 10.6 9.5 8.6 9.1 9.6 8.0 9.4 9.6 9.3 9.5 7.9 6.8 6.4 8.5 10.0 9.9 13.8 12.7 17.1 17.8 13.4 14.1 17.2 14.9 20.6 14.6 10.4 14.9 11.2 20.4 21.4 23.4 23.1 23.8 24.5 22.6
12.2 13.5 13.0 9.8 8.8 6.5 5.5 5.1 5.4 5.4 6.8 6.8 6.2 5.3 5.6 6.1 9.2 9.1 10.3 10.5 16.2 16.7 18.0 17.3 16.9 18.9 15.0 12.8 16.5 11.2 12.0 12.9 15.4 21.8 22.2 25.0 27.1 26.7
11.6 9.8 8.8 7.8 7.6 7.2 7.9 8.4 6.0 4.8 4.2 5.2 5.5 4.9 6.7 7.7 8.6 8.1 8.2 13.6 14.9 15.4 18.1 17.0 17.4 21.0 17.9 16.4 9.3 11.6 15.9 16.0 15.6 15.0 16.5 21.0 27.9 27.7
11.6 9.6 9.3 10.2 8.5 8.5 7.5 8.1 8.0 6.7 5.2 5.8 5.0 7.0 6.2 6.2 7.9 7.8 9.1 10.8 13.6 10.8 13.4 16.0 20.5 21.8 28.0 25.1 15.9 7.7 14.1 12.4 11.7 14.3 17.5 17.5 26.6 33.4
11.3 11.7 11.7 10.1 8.8 7.5 7.4 8.0 6.7 6.4 5.8 4.8 5.3 4.8 6.1 6.7 5.4 7.5 8.8 11.8 11.5 11.0 10.0 10.9 15.9 18.3 26.7 26.7 25.5 21.7 13.7 15.7 13.5 16.3 20.1 19.8 25.0 28.1
13.2 11.9 13.1 12.7 11.4 10.8 10.2 9.5 9.9 9.5 8.9 6.8 6.8 7.4 7.6 7.4 6.9 4.8 7.1 7.9 9.6 10.7 11.1 11.8 12.8 15.0 17.2 17.8 24.6 23.3 26.1 17.6 17.0 19.0 19.4 22.0 24.6 19.6
22.9 20.8 19.2 19.2 18.8 17.7 16.3 14.7 12.8 12.0 11.2 8.5 8.3 8.5 9.4 8.7 8.8 8.9 8.6 12.7 12.1 11.5 12.8 11.3 11.0 12.7 16.3 19.6 21.9 18.2 23.0 24.4 17.1 17.1 17.3 14.5 21.2 25.1
23.6 22.4 21.0 19.0 17.6 17.6 17.1 17.1 15.6 15.4 13.6 12.0 11.6 10.5 10.5 11.8 10.2 10.7 9.6 8.5 9.8 10.2 10.0 13.6 12.9 12.5 16.3 17.4 19.9 22.6 20.8 21.8 23.0 18.6 24.9 12.7 9.7 8.4

GFSNE_prec_kuchsnow_261.txt.gz
Snowfall_Accumulation
0.0 0.0 0.0 0.0 0.0 0.0 0.1 0.1 2.1 3.2 0.1 0.0 0.0 0.0 0.0 0.0 0.0 0.0 0.0 0.0 0.0 0.0 0.0 0.0 0.0 0.0 0.0 0.0 0.0 0.0 0.0 0.0 0.0 0.0 0.0 0.0 0.0 0.0
0.0 0.0 0.0 0.0 0.0 0.0 0.1 0.0 0.2 0.8 1.7 0.0 0.0 0.0 0.0 0.0 0.0 0.0 0.0 0.0 0.0 0.0 0.0 0.0 0.0 0.0 0.0 0.0 0.0 0.0 0.0 0.0 0.0 0.0 0.0 0.0 0.0 0.0
0.0 0.0 0.0 0.0 0.0 0.1 0.0 0.0 0.1 0.3 1.1 0.0 0.0 0.0 0.0 0.0 0.0 0.0 0.0 0.0 0.0 0.0 0.0 0.0 0.0 0.0 0.0 0.0 0.0 0.0 0.0 0.0 0.0 0.0 0.0 0.0 0.0 0.0
0.1 0.0 0.0 0.0 0.0 0.0 0.0 0.1 0.3 0.1 0.4 0.4 0.0 0.0 0.0 0.0 0.0 0.0 0.0 0.0 0.0 0.0 0.0 0.0 0.0 0.0 0.0 0.0 0.0 0.0 0.0 0.0 0.0 0.0 0.0 0.0 0.0 0.0
0.4 0.3 0.1 0.2 0.2 0.2 0.3 0.4 0.2 0.1 0.1 0.3 0.2 0.0 0.0 0.0 0.0 0.0 0.0 0.0 0.0 0.0 0.0 0.0 0.0 0.0 0.0 0.0 0.0 0.0 0.0 0.0 0.0 0.0 0.0 0.0 0.0 0.0
1.6 1.3 0.9 0.7 0.7 1.5 0.3 0.4 0.2 0.3 0.3 0.2 0.1 0.1 0.0 0.0 0.0 0.0 0.0 0.0 0.0 0.0 0.0 0.0 0.0 0.0 0.0 0.0 0.1 0.1 0.0 0.0 0.0 0.0 0.0 0.0 0.0 0.0
3.9 2.9 3.0 2.8 1.5 2.1 2.9 2.4 0.8 1.1 1.3 0.9 1.6 1.2 0.8 0.7 0.4 0.1 0.7 0.8 0.5 0.2 0.6 0.5 0.2 0.4 0.3 0.1 0.1 0.0 0.0 0.0 0.0 0.0 0.0 0.1 0.1 0.0
4.1 4.7 3.6 3.6 2.5 2.9 2.4 2.6 3.2 2.6 6.3 5.4 3.6 2.8 1.1 1.9 1.8 2.7 3.4 7.7 11.1 0.5 1.8 2.7 1.0 1.4 0.8 0.5 0.3 0.1 0.1 0.3 0.3 0.2 0.4 0.4 0.0 0.0
5.3 4.3 4.0 4.6 4.1 3.2 3.4 3.3 2.8 3.1 4.7 7.9 11.5 6.7 6.4 4.0 4.5 7.9 4.5 4.5 4.1 1.5 3.0 8.8 4.8 4.2 1.9 0.6 0.4 0.4 0.5 0.3 0.1 0.4 0.3 0.5 0.6 0.6
5.8 4.9 4.2 4.3 4.5 4.8 6.1 8.5 9.4 7.8 7.3 7.6 6.2 6.5 3.0 3.1 4.4 4.5 5.6 7.1 7.2 6.9 4.5 17.9 10.8 8.1 5.0 1.5 0.6 0.5 0.6 0.6 0.8 0.6 0.3 0.2 0.2 0.6
1.8 3.7 4.2 3.9 6.5 6.8 11.8 13.3 12.3 9.5 7.6 5.4 5.8 4.8 6.8 5.7 5.9 11.1 14.6 18.6 17.6 12.3 9.7 13.1 10.7 11.5 11.7 12.1 6.0 1.5 1.1 0.8 0.6 0.3 1.9 1.1 0.9 2.1
1.1 1.8 4.1 5.5 5.7 6.7 11.1 12.7 14.9 11.8 10.6 8.8 9.0 8.1 6.5 5.8 6.0 5.6 13.2 20.1 15.9 19.7 9.4 12.9 9.2 11.5 23.1 14.7 13.1 11.5 8.2 3.4 0.9 2.6 1.2 1.2 2.6 4.9
4.4 5.7 4.4 4.5 8.0 5.7 6.1 9.1 11.6 7.6 8.3 9.1 9.3 10.9 10.8 9.9 10.4 9.3 8.6 14.2 23.4 17.5 5.2 11.3 11.5 9.3 13.7 11.7 12.9 14.0 13.5 17.6 12.6 9.0 5.3 4.8 2.4 3.1
10.1 9.0 8.7 8.1 6.4 5.7 5.6 8.0 7.2 6.5 8.8 10.9 10.7 11.8 15.0 15.0 12.1 12.9 11.4 10.4 9.5 12.1 7.4 12.7 23.1 8.8 13.0 15.3 13.4 14.1 18.6 19.6 19.1 18.2 17.0 14.1 11.1 8.4
8.4 9.5 9.4 7.8 6.5 7.6 6.6 6.7 7.2 9.8 10.5 10.8 10.0 8.8 10.0 11.3 11.3 11.8 12.6 11.0 10.8 11.4 11.9 9.8 11.5 10.8 14.6 16.0 9.5 11.5 20.6 25.0 20.3 20.8 22.7 24.1 26.4 20.8
9.1 9.9 10.6 9.5 8.6 9.1 9.6 8.0 9.4 9.6 9.3 9.5 7.9 6.8 6.4 8.5 10.0 9.9 13.8 12.7 17.1 17.8 13.4 14.1 17.2 14.9 20.6 14.6 10.5 15.0 11.3 21.0 21.6 23.6 24.2 24.6 25.3 23.3
12.3 13.5 13.0 9.8 8.8 6.5 5.5 5.1 5.4 5.4 6.8 6.8 6.2 5.3 5.6 6.1 9.2 9.1 10.3 10.5 16.2 16.7 18.0 17.3 16.9 18.9 15.0 12.8 16.7 11.4 12.1 13.1 15.6 22.5 23.1 25.8 28.6 28.4
11.6 9.8 8.8 7.9 7.6 7.2 7.9 8.4 6.0 4.8 4.2 5.2 5.5 4.9 6.7 7.7 8.6 8.1 8.2 13.6 14.9 15.4 18.1 17.0 17.4 21.0 17.9 16.4 9.3 11.8 16.0 16.1 16.1 15.8 17.2 21.7 30.0 29.8
11.6 9.6 9.3 10.2 8.5 8.5 7.5 8.1 8.0 6.7 5.2 5.8 5.0 7.0 6.2 6.2 7.9 7.8 9.1 10.8 13.6 10.8 13.4 16.0 20.5 21.8 28.0 25.1 15.9 8.0 14.5 12.6 12.1 15.0 18.2 17.8 28.2 37.1
11.3 11.7 11.7 10.1 8.8 7.5 7.4 8.0 6.7 6.4 5.8 4.8 5.3 4.8 6.1 6.7 5.4 7.5 8.8 11.8 11.5 11.0 10.0 10.9 15.9 18.3 26.7 26.8 25.8 22.2 14.1 15.9 13.6 16.9 21.5 21.1 28.6 33.5
13.2 11.9 13.1 12.7 11.4 10.8 10.2 9.5 9.9 9.5 8.9 6.8 6.8 7.4 7.6 7.4 6.9 4.8 7.1 7.9 9.6 10.7 11.1 11.8 12.8 15.0 17.2 17.8 24.7 23.5 26.4 18.1 17.3 19.5 20.0 22.9 27.0 21.9
22.9 20.8 19.2 19.2 18.8 17.7 16.3 14.7 12.8 12.0 11.2 8.5 8.3 8.5 9.4 8.7 8.8 8.9 8.6 12.7 12.1 11.5 12.8 11.3 11.0 12.7 16.3 19.6 21.9 18.4 23.3 24.9 17.6 17.6 17.3 14.5 21.2 25.2
23.6 22.4 21.0 19.0 17.6 17.6 17.1 17.1 15.6 15.4 13.6 12.0 11.6 10.5 10.5 11.8 10.2 10.7 9.6 8.5 9.8 10.2 10.0 13.6 12.9 12.5 16.3 17.4 19.9 22.7 21.1 22.2 24.1 19.3 26.6 13.7 9.7 8.8